カタログに戻る

YAOGAN-35 05A

運用中軍事VLEO
NORAD 53760·PAYLOAD·🇨🇳 China

打ち上げ Sep 6, 2022 から Xichang Satellite Launch Center

Loading…

次のパス (今後24時間)

TLE

最新Source: Space-Track

元期: Sep 14, 2026, 16:06 UTC

1 53760U 22109A   26257.67130448  .00007346  00000-0  30638-3 0  9993
2 53760  35.0066 136.2545 0004748  87.2933 272.8325 15.22971107224264

AllMySatでYAOGAN-35 05Aをリアルタイム追跡

Download on the App Store